Regional Weather Roundup
Issued by NWS Kansas City/Pleasant Hill, MO

Home | Current Version | Previous Version | Graphics & Text | Print | Product List | Glossary Off
Versions: 1 2 3 4 5 6 7 8 9 10 11 12 13 14 15 16 17 18 19 20 21 22 23 24 25 26 27 28 29 30 31 32 33 34 35 36 37 38 39 40 41 42 43 44 45 46 47 48 49 50

000
ASUS43 KEAX 271904
RWREAX

WEATHER ROUNDUP FOR EASTERN KANSAS AND NORTHWEST MISSOURI
NATIONAL WEATHER SERVICE KANSAS CITY/PLEASANT HILL MO
200 PM CDT WED MAY 27 2015

KSZ040-057-103>105-MOZ028-029-037-043-272000-
...KANSAS CITY METROPOLITAN AREA...

CITY           SKY/WX    TMP DP  RH WIND       PRES   REMARKS
K.C. INTL      SUNNY     79  54  41 CALM      30.10S
K.C. DOWNTOWN  MOSUNNY   82  49  31 CALM      30.08F
LEES SUMMIT    MOSUNNY   81  51  35 NE3       30.10F
OLATHE - IXD   SUNNY     79  52  38 SE7       30.11F
OLATHE - OJC   MOSUNNY   78  52  40 SE5       30.10F
LAWRENCE       SUNNY     80  50  34 SE6       30.10F

$$

MOZ001>008-011>017-020>025-030>033-038>040-044>046-053-054-272000-
...NORTHERN AND CENTRAL MISSOURI...

CITY           SKY/WX    TMP DP  RH WIND       PRES   REMARKS
ST. JOSEPH     SUNNY     81  50  33 VRB3      30.09S
MOSBY          PTCLDY    79  46  31 CALM      30.09S
WHITEMAN AFB   MOSUNNY   78  56  46 SW3       30.09F
CLINTON        SUNNY     81  57  44 CALM      30.11F
SEDALIA        SUNNY     79  56  45 VRB6      30.12S
WARSAW         NOT AVBL
CHILLICOTHE    NOT AVBL
KIRKSVILLE     SUNNY     78  58  49 W8        30.09S

$$

MOZ041-047>049-056>058-063>065-088>090-097-272000-
...EASTERN AND SOUTHERN MISSOURI...

CITY           SKY/WX    TMP DP  RH WIND       PRES   REMARKS
ST. LOUIS INTL MOSUNNY   83  62  49 W13       30.06S
SPIRIT OF STL  MOSUNNY   81  63  54 W6        30.05S
COLUMBIA       SUNNY     80  58  46 N8        30.09F
JEFFERSON CITY SUNNY     80  52  37 NW10      30.08S
ROLLA          MOSUNNY   78  63  59 NW8       30.09S
SPRINGFIELD    MOSUNNY   80  64  58 VRB5      30.11S
BRANSON        PTSUNNY   81  63  54 CALM      30.13S
JOPLIN         MOSUNNY   80  66  62 SE5       30.10F
WEST PLAINS    MOSUNNY   81  64  56 W6        30.12F

$$

IAZ060-094-KSZ022-034>040-054-083-096-NEZ052-066-093-272000-
...KANSAS...SOUTHEAST NEBRASKA AND IOWA...

CITY           SKY/WX    TMP DP  RH WIND       PRES   REMARKS
TOPEKA         SUNNY     80  55  42 S7        30.09F
MANHATTAN      MOSUNNY   80  54  40 E8        30.09S
EMPORIA        PTSUNNY   77  58  51 E9        30.10F
CHANUTE        MOSUNNY   81  64  56 E7        30.09F
WICHITA        PTSUNNY   80  64  58 SE10      30.09F
OMAHA          MOSUNNY   82  49  31 SW6       30.06S
LINCOLN        SUNNY     81  48  31 S10       30.08F
FALLS CITY     SUNNY     81  52  36 S5        30.08F
LAMONI         SUNNY     80  56  43 SW5       30.09S
DES MOINES     MOSUNNY   80  54  40 W7        30.05S

$$



USA.gov is the U.S. government's official web portal to all federal, state and local government web resources and services.